TimeCDT,TemperatureF,Dew PointF,Humidity,Sea Level PressureIn,VisibilityMPH,Wind Direction,Wind SpeedMPH,Gust SpeedMPH,PrecipitationIn,Events,Conditions,WindDirDegrees,DateUTC
12:53 AM,57.9,53.1,84,29.98,10.0,Calm,Calm,-,N/A,,Clear,0,2012-10-03 05:53:00
1:53 AM,57.9,52.0,81,29.98,10.0,Calm,Calm,-,N/A,,Clear,0,2012-10-03 06:53:00
2:53 AM,57.0,52.0,83,29.97,10.0,NNE,3.5,-,N/A,,Clear,30,2012-10-03 07:53:00
3:53 AM,55.9,52.0,87,29.96,10.0,Calm,Calm,-,N/A,,Clear,0,2012-10-03 08:53:00
4:53 AM,55.0,51.1,86,29.97,10.0,Calm,Calm,-,N/A,,Clear,0,2012-10-03 09:53:00
5:53 AM,55.0,51.1,86,29.98,9.0,Calm,Calm,-,N/A,,Clear,0,2012-10-03 10:53:00
6:53 AM,54.0,51.1,90,29.99,9.0,NE,3.5,-,N/A,,Clear,40,2012-10-03 11:53:00
7:53 AM,55.9,52.0,87,29.99,9.0,Calm,Calm,-,N/A,,Clear,0,2012-10-03 12:53:00
8:53 AM,63.0,53.1,70,30.00,9.0,Calm,Calm,-,N/A,,Clear,0,2012-10-03 13:53:00
9:53 AM,66.9,54.0,63,30.02,10.0,South,5.8,-,N/A,,Clear,180,2012-10-03 14:53:00
10:53 AM,71.1,53.1,53,30.03,10.0,South,9.2,-,N/A,,Clear,180,2012-10-03 15:53:00
12:53 PM,78.1,52.0,40,29.99,10.0,SSE,8.1,-,N/A,,Clear,160,2012-10-03 17:53:00
1:53 PM,80.1,52.0,38,-9999,10.0,South,9.2,16.1,N/A,,Unknown,190,2012-10-03 18:53:00
2:53 PM,82.0,53.1,37,-9999,10.0,SSW,9.2,17.3,N/A,,Clear,200,2012-10-03 19:53:00
3:53 PM,82.0,53.1,37,-9999,10.0,South,9.2,-,N/A,,Clear,180,2012-10-03 20:53:00
4:53 PM,82.0,54.0,38,-9999,10.0,SE,8.1,-,N/A,,Clear,140,2012-10-03 21:53:00
5:53 PM,81.0,54.0,39,-9999,10.0,SSE,10.4,-,N/A,,Clear,150,2012-10-03 22:53:00
6:53 PM,79.0,54.0,42,-9999,10.0,SSE,5.8,-,N/A,,Clear,160,2012-10-03 23:53:00
7:53 PM,75.0,55.0,50,-9999,10.0,SSE,4.6,-,N/A,,Clear,150,2012-10-04 00:53:00
8:53 PM,73.0,55.0,53,-9999,10.0,SSE,3.5,-,N/A,,Clear,160,2012-10-04 01:53:00
9:53 PM,72.0,55.0,55,-9999,10.0,SSE,3.5,-,N/A,,Clear,150,2012-10-04 02:53:00
10:53 PM,72.0,55.9,57,-9999,10.0,SSE,8.1,-,N/A,,Clear,160,2012-10-04 03:53:00